Flag for Germany Weather past 2 weeks in Berlin, Berlin, Germany

Now
66 °F

Mild.


Feels Like: 66 °F
Forecast: 56 / 66 °F
Wind: 6 mph from Southwest

Location: Berlin-Tempelhof

Current Time: Jul 29, 2015 at 12:06:33 PM

Latest Report: Jul 29, 2015 at 11:00 AM


Visibility: N/A

Pressure: 29.72 "Hg

Humidity: 50%

Dew point: 47 °F

Location of BerlinLocation

Historic Weather in Berlin — Graph

°F

Berlin temperature yesterday

Maximum temperature yesterday: 70 °F (at 5:00 PM)
Minimum temperature yesterday: 59 °F (at 5:00 AM)
Average temperature yesterday: 64 °F

Past Weeks' High & Low Weather Summary

 TemperatureHumidityPressure
High90 °F (Jul 17, 7:00 PM)98% (Jul 19, 1:00 PM)30.11 "Hg (Jul 19, 1:00 PM)
Low56 °F (Jul 26, 2:00 AM)31% (Jul 25, 5:00 PM)29.55 "Hg (Jul 25, 9:00 AM)
Average69 °F64%29.87 "Hg
* Reported Jul 14 11:00 AM — Jul 29 11:00 AM, Berlin, Weather by CustomWeather, © 2015

Note: Actual official high and low records may vary slightly from our data, if they occured in-between our weather recording intervals... More about our weather records

Advertising

Berlin weather history for previous 24 hours

 ConditionsComfort  
Time TempWeatherWind HumidityBarometerVisibility
11:00 AM
Wed, Jul 29
66 °FMild.6 mph50%29.72 "HgN/A
10:00 AM64 °FMild.7 mph54%29.72 "HgN/A
9:00 AM62 °FRefreshingly cool.5 mph60%29.73 "HgN/A
8:00 AM60 °FCool.6 mph64%29.73 "HgN/A
7:00 AM57 °FCool.3 mph70%29.73 "HgN/A
6:00 AM56 °FCool.3 mph73%29.74 "HgN/A
5:00 AM57 °FCool.3 mph72%29.73 "HgN/A
4:00 AM58 °FCool.3 mph68%29.73 "HgN/A
3:00 AM60 °FCool.3 mph65%29.73 "HgN/A
2:00 AM61 °FCool.5 mph63%29.73 "HgN/A
1:00 AM61 °FCool.3 mph65%29.73 "HgN/A
11:00 PM
Tue, Jul 28
63 °FMild.3 mph61%29.71 "HgN/A
10:00 PM64 °FMild.5 mph62%29.70 "HgN/A
9:00 PM64 °FMild.3 mph60%29.69 "HgN/A
8:00 PM65 °FMild.5 mph59%29.68 "HgN/A
7:00 PM65 °FMild.6 mph58%29.67 "HgN/A
6:00 PM68 °FMild.8 mph51%29.66 "HgN/A
5:00 PM70 °FMild.7 mph48%29.65 "HgN/A
4:00 PM69 °FMild.8 mph49%29.65 "HgN/A
3:00 PM66 °FMild.6 mph56%29.66 "HgN/A
2:00 PM66 °FMild.8 mph58%29.65 "HgN/A
1:00 PM63 °FMild.6 mph68%29.65 "HgN/A
12:00 PM67 °FMild.7 mph58%29.64 "HgN/A
Weather by CustomWeather, © 2015

See weather overviewHow to use our weather pages